Location: Eyeline Observatory
(43.2182°N, 78.8632°W)
Time: 18:37:57
(UTC-04:00)

Vanguard 2 - Pass Details

Date: 27 January 2018
Orbit: 552 x 2940 km, 32.9° (Epoch: 20 May)

Event Time Altitude Azimuth Distance (km) Brightness Sun altitude
Rises 03:30:24 0° 249° (WSW) 3,505 - -44.5°
Reaches altitude 10° 03:32:40 10° 241° (WSW) 2,789 - -44.1°
Maximum altitude 03:39:06 42° 172° (S) 1,877 - -43.0°
Exits shadow 03:41:28 37° 140° (SE) 2,231 9.8 -42.5°
Drops below altitude 10° 03:49:32 10° 108° (ESE) 4,479 11.9 -41.1°
Sets 03:54:10 0° 102° (ESE) 5,864 12.8 -40.3°
